When you browse on this site, cookies collect data to enhance your experience and personalize the content and advertising you see.
Visit our Privacy Policy to learn more. By continuing to use the site, you agree to this use of cookies and data.
  • In Switzerland
  • List of Countries
  • For 7 days
  • Water Temperature
  • Weather Map
  • Weather Widgets
  • user-avatar
    Login

    Hourly Weather Monterey

    Today, 16 December, Monday

    Time Temperature Precipitation Wind Pressure Humidity
    00:00 +7°C° 0 mm 2 mps 762 mmHg 86%
    01:00 +7°C° 0 mm 2 mps 762 mmHg 85%
    02:00 +7°C° 0 mm 3 mps 762 mmHg 83%
    03:00 +7°C° 0 mm 3 mps 762 mmHg 80%
    04:00 +5°C° 0 mm 3 mps 762 mmHg 78%
    05:00 +5°C° 0 mm 3 mps 762 mmHg 75%
    06:00 +5°C° 0 mm 3 mps 762 mmHg 73%
    07:00 +5°C° 0 mm 3 mps 762 mmHg 71%
    08:00 +8°C° 0 mm 3 mps 763 mmHg 66%
    09:00 +10°C° 0 mm 3 mps 763 mmHg 60%
    10:00 +12°C° 0 mm 3 mps 763 mmHg 55%
    11:00 +13°C° 0 mm 3 mps 763 mmHg 52%
    12:00 +13°C° 0 mm 3 mps 762 mmHg 49%
    13:00 +14°C° 0 mm 3 mps 762 mmHg 45%
    14:00 +14°C° 0 mm 3 mps 762 mmHg 51%
    15:00 +13°C° 0 mm 3 mps 762 mmHg 56%
    16:00 +13°C° 0 mm 2 mps 761 mmHg 61%
    17:00 +11°C° 0 mm 3 mps 761 mmHg 61%
    18:00 +10°C° 0 mm 3 mps 761 mmHg 62%
    19:00 +9°C° 0 mm 3 mps 761 mmHg 62%
    20:00 +9°C° 0 mm 3 mps 761 mmHg 62%
    21:00 +8°C° 0 mm 3 mps 762 mmHg 61%
    22:00 +8°C° 0 mm 3 mps 762 mmHg 61%
    23:00 +8°C° 0 mm 3 mps 761 mmHg 60%

    Tomorrow, 17 December, Tuesday

    Time Temperature Precipitation Wind Pressure Humidity
    00:00 +8°C° 0 mm 3 mps 761 mmHg 59%
    01:00 +8°C° 0 mm 3 mps 761 mmHg 57%
    02:00 +9°C° 0 mm 3 mps 761 mmHg 55%
    03:00 +9°C° 0 mm 3 mps 760 mmHg 53%
    04:00 +9°C° 0 mm 3 mps 760 mmHg 51%
    05:00 +9°C° 0 mm 3 mps 760 mmHg 50%
    06:00 +9°C° 0 mm 3 mps 760 mmHg 48%
    07:00 +9°C° 0 mm 3 mps 760 mmHg 47%
    08:00 +10°C° 0 mm 3 mps 760 mmHg 46%
    09:00 +11°C° 0 mm 3 mps 760 mmHg 45%
    10:00 +13°C° 0 mm 3 mps 760 mmHg 44%
    11:00 +14°C° 0 mm 3 mps 759 mmHg 42%
    12:00 +16°C° 0 mm 3 mps 759 mmHg 39%
    13:00 +16°C° 0 mm 3 mps 758 mmHg 36%
    14:00 +16°C° 0 mm 3 mps 757 mmHg 41%
    15:00 +14°C° 0 mm 3 mps 757 mmHg 45%
    16:00 +13°C° 0 mm 3 mps 756 mmHg 49%
    17:00 +12°C° 0 mm 4 mps 756 mmHg 50%
    18:00 +11°C° 0 mm 4 mps 755 mmHg 51%
    19:00 +8°C° 0 mm 5 mps 755 mmHg 52%
    20:00 +8°C° 0.7 mm 6 mps 755 mmHg 60%
    21:00 +8°C° 0.7 mm 6 mps 755 mmHg 68%
    22:00 +8°C° 0.7 mm 7 mps 755 mmHg 77%
    23:00 +8°C° 0.3 mm 7 mps 755 mmHg 80%

    Day after tomorrow, 18 December, Wednesday

    Time Temperature Precipitation Wind Pressure Humidity
    00:00 +8°C° 0.3 mm 7 mps 755 mmHg 83%
    01:00 +8°C° 0.3 mm 6 mps 755 mmHg 86%
    02:00 +8°C° 0.5 mm 6 mps 755 mmHg 86%
    03:00 +8°C° 0.5 mm 6 mps 755 mmHg 87%
    04:00 +8°C° 0.5 mm 6 mps 755 mmHg 88%
    05:00 +8°C° 0.9 mm 6 mps 755 mmHg 89%
    06:00 +9°C° 0.9 mm 6 mps 755 mmHg 89%
    07:00 +9°C° 0.9 mm 6 mps 755 mmHg 90%
    08:00 +9°C° 0.4 mm 6 mps 756 mmHg 90%
    09:00 +10°C° 0.4 mm 5 mps 756 mmHg 90%
    10:00 +10°C° 0.4 mm 5 mps 756 mmHg 90%
    11:00 +12°C° 0.2 mm 5 mps 757 mmHg 88%
    12:00 +12°C° 0.2 mm 5 mps 757 mmHg 86%
    13:00 +13°C° 0.2 mm 5 mps 757 mmHg 83%
    14:00 +12°C° 0.1 mm 5 mps 757 mmHg 86%
    15:00 +10°C° 0.1 mm 5 mps 757 mmHg 88%
    16:00 +9°C° 0.1 mm 5 mps 757 mmHg 91%
    17:00 +10°C° 0 mm 4 mps 758 mmHg 91%
    18:00 +10°C° 0 mm 4 mps 758 mmHg 92%
    19:00 +10°C° 0 mm 3 mps 758 mmHg 92%
    20:00 +9°C° 0 mm 3 mps 759 mmHg 93%
    21:00 +9°C° 0 mm 2 mps 759 mmHg 94%
    22:00 +8°C° 0 mm 2 mps 759 mmHg 95%
    23:00 +8°C° 0 mm 2 mps 759 mmHg 95%

    19 December, Thursday

    Time Temperature Precipitation Wind Pressure Humidity
    00:00 +8°C° 0 mm 2 mps 759 mmHg 95%
    01:00 +8°C° 0 mm 2 mps 760 mmHg 95%
    02:00 +7°C° 0 mm 2 mps 760 mmHg 95%
    03:00 +7°C° 0 mm 2 mps 760 mmHg 94%
    04:00 +7°C° 0 mm 2 mps 760 mmHg 94%
    05:00 +7°C° 0 mm 2 mps 760 mmHg 93%
    06:00 +7°C° 0 mm 2 mps 760 mmHg 92%
    07:00 +7°C° 0 mm 2 mps 760 mmHg 91%
    08:00 +9°C° 0 mm 2 mps 761 mmHg 85%
    09:00 +10°C° 0 mm 2 mps 761 mmHg 80%
    10:00 +13°C° 0 mm 1 mps 761 mmHg 75%
    11:00 +13°C° 0 mm 1 mps 761 mmHg 71%
    12:00 +14°C° 0 mm 1 mps 761 mmHg 68%
    13:00 +15°C° 0 mm 2 mps 761 mmHg 65%
    14:00 +14°C° 0 mm 1 mps 761 mmHg 68%
    15:00 +14°C° 0 mm 1 mps 760 mmHg 72%
    16:00 +13°C° 0 mm 1 mps 760 mmHg 75%
    17:00 +12°C° 0 mm 1 mps 760 mmHg 78%
    18:00 +11°C° 0 mm 1 mps 761 mmHg 80%
    19:00 +10°C° 0 mm 1 mps 761 mmHg 83%
    20:00 +10°C° 0 mm 1 mps 761 mmHg 83%
    21:00 +10°C° 0 mm 1 mps 761 mmHg 83%
    22:00 +10°C° 0 mm 1 mps 761 mmHg 83%
    23:00 +10°C° 0 mm 1 mps 761 mmHg 83%

    20 December, Friday

    Time Temperature Precipitation Wind Pressure Humidity
    00:00 +10°C° 0 mm 1 mps 761 mmHg 83%
    01:00 +9°C° 0 mm 1 mps 761 mmHg 83%
    02:00 +9°C° 0 mm 1 mps 761 mmHg 82%
    03:00 +9°C° 0 mm 1 mps 761 mmHg 81%
    04:00 +8°C° 0 mm 2 mps 761 mmHg 80%
    05:00 +8°C° 0 mm 2 mps 761 mmHg 79%
    06:00 +8°C° 0 mm 2 mps 761 mmHg 79%
    07:00 +8°C° 0 mm 2 mps 761 mmHg 78%
    08:00 +10°C° 0 mm 2 mps 761 mmHg 74%
    09:00 +12°C° 0 mm 2 mps 761 mmHg 69%
    10:00 +14°C° 0 mm 1 mps 761 mmHg 64%
    11:00 +15°C° 0 mm 1 mps 761 mmHg 61%
    12:00 +16°C° 0 mm 1 mps 760 mmHg 57%
    13:00 +18°C° 0 mm 1 mps 759 mmHg 54%
    14:00 +18°C° 0 mm 1 mps 759 mmHg 58%
    15:00 +16°C° 0 mm 1 mps 759 mmHg 63%
    16:00 +15°C° 0 mm 2 mps 758 mmHg 67%
    17:00 +14°C° 0 mm 1 mps 758 mmHg 71%
    18:00 +12°C° 0 mm 1 mps 758 mmHg 74%
    19:00 +11°C° 0 mm 1 mps 758 mmHg 77%
    20:00 +11°C° 0 mm 1 mps 758 mmHg 75%
    21:00 +11°C° 0 mm 1 mps 758 mmHg 73%
    22:00 +9°C° 0 mm 2 mps 758 mmHg 72%
    23:00 +9°C° 0 mm 2 mps 757 mmHg 69%

    21 December, Saturday

    Time Temperature Precipitation Wind Pressure Humidity
    00:00 +9°C° 0 mm 3 mps 756 mmHg 67%
    01:00 +9°C° 0 mm 3 mps 756 mmHg 65%
    02:00 +9°C° 0 mm 3 mps 756 mmHg 63%
    03:00 +8°C° 0 mm 4 mps 755 mmHg 62%
    04:00 +8°C° 0 mm 4 mps 755 mmHg 60%
    05:00 +8°C° 0 mm 4 mps 755 mmHg 61%
    06:00 +8°C° 0 mm 4 mps 754 mmHg 63%
    07:00 +8°C° 0 mm 4 mps 754 mmHg 64%
    08:00 +10°C° 0 mm 4 mps 754 mmHg 64%
    09:00 +10°C° 0 mm 5 mps 754 mmHg 64%
    10:00 +13°C° 0 mm 5 mps 754 mmHg 63%
    11:00 +13°C° 0 mm 6 mps 753 mmHg 63%
    12:00 +14°C° 0 mm 6 mps 753 mmHg 62%
    13:00 +15°C° 0 mm 7 mps 753 mmHg 61%
    14:00 +14°C° 0.2 mm 7 mps 752 mmHg 66%
    15:00 +14°C° 0.2 mm 7 mps 752 mmHg 71%
    16:00 +12°C° 0.2 mm 7 mps 752 mmHg 76%
    17:00 +11°C° 1 mm 7 mps 752 mmHg 81%
    18:00 +11°C° 1 mm 7 mps 752 mmHg 86%
    19:00 +10°C° 1 mm 7 mps 753 mmHg 91%
    20:00 +10°C° 1.6 mm 6 mps 753 mmHg 92%
    21:00 +11°C° 1.6 mm 6 mps 753 mmHg 93%
    22:00 +11°C° 1.6 mm 6 mps 753 mmHg 94%
    23:00 +10°C° 0.8 mm 5 mps 753 mmHg 94%
    Show more